Погода в Великой Дымерке

Украина / Киевская область     50°35′30″N   30°54′11″E
темп.,
°C
ветер,
м/с
пор.,
м/с
влажн.,
%
обл.,
%
осадки,
мм/ч
давл.,
гПа
погр.,
м
15 апреля, чт
чт1500:00+10ююз117293 0.0 101312
03:00+9сз1173100 0.0 101310
06:00+9всв227899 0.0 101242
09:00+10юз1181100 0.3 1012136
12:00+10зсз1181100 0.6 1012285
15:00+10ю2384100 1.6 1011341
18:00+9ююз2389100 0.6 1011224
21:00+8зюз239176 0.8 101183
16 апреля, пт
пт1600:00+8ю1192100 0.0 101128
03:00+8юз2394100 0.1 101096
06:00+7юз2592100 0.0 1010244
09:00+7ююз458591 0.0 1011459
12:00+8ююз458097 0.0 1012738
15:00+9ююз557581 0.1 1013853
18:00+7юз447799 0.0 1014775
21:00+5зюз448885 0.0 1016494
17 апреля, сб
сб1700:00+5зюз3386100 0.0 1017505
03:00+5зюз3483100 0.1 1018352
06:00+4юз3482100 0.0 1018324
09:00+5ююз2276100 0.0 1020448
12:00+7ююз226897 0.0 1020844
15:00+8ююз1162100 0.0 1020979
18:00+8юз226698 0.0 1020640
21:00+7зюз247798 0.0 1021125
18 апреля, вс
вс1800:00+6з247882 0.0 1020188
03:00+4з338714 0.0 102061
06:00+3з22885 0.0 102018
09:00+7юз22715 0.0 1020346
12:00+11зюз22585 0.0 1020918
15:00+13с225248 0.0 10191470
18:00+12ссв446338 0.0 1019718
21:00+9св237994 0.1 102063
19 апреля, пн
пн1900:00+9всв2382100 0.1 102089
03:00+9всв2487100 0.2 1020132
06:00+8всв3693100 0.1 1020237
09:00+8в4788100 0.3 1020415
12:00+13в5658100 0.1 10191534
15:00+12всв5762100 0.1 10181189
18:00+12всв5958100 0.0 1017960
21:00+9всв7137499 0.0 1016742